Regional Weather Roundup
Issued by NWS

Home | Current Version | Previous Version | Graphics & Text | Print | Product List | Glossary On
Versions: 1 2 3 4 5 6 7 8 9 10 11 12 13 14 15 16 17 18 19 20 21 22 23 24 25 26 27 28 29 30 31 32 33 34 35 36 37 38 39 40 41 42 43 44 45 46 47 48 49 50
000
ASUS43 KDTX 150510
RWRMI
MICHIGAN HOURLY REGIONAL WEATHER ROUNDUP
NATIONAL WEATHER SERVICE DETROIT/PONTIAC MI
ISSUED BY NATIONAL WEATHER SERVICE GRAND RAPIDS MI
100 AM EDT WED AUG 15 2018

NOTE: "FAIR" INDICATES FEW OR NO CLOUDS BELOW 12,000 FEET WITH NO
SIGNIFICANT WEATHER AND/OR OBSTRUCTION TO VISIBILITY.

MIZ047>049-052>055-059>063-066>070-074>076-081>083-150600-
SOUTHEAST LOWER MICHIGAN

CITY           SKY/WX    TMP DP  RH WIND       PRES   REMARKS
ADRIAN         FAIR      69  67  93 SW3       29.99F
ALMA           FAIR      63  63  99 CALM      29.96S
ANN ARBOR      FAIR      67  65  93 CALM      29.98R
BAD AXE        FAIR      70  65  84 CALM      29.93R
DETROIT CITY   FAIR      78  65  63 W7        29.96R
DETROIT        FAIR      75  64  68 VRB5      29.97S
FLINT          FAIR      69  64  84 SW6       29.96S
GROSSE ILE     FAIR      73  67  81 CALM      29.96S
HILLSDALE      FAIR      64  63  94 CALM      30.00S FOG
HOWELL         FAIR      70  65  86 CALM      29.98R

CITY           SKY/WX    TMP DP  RH WIND       PRES   REMARKS
JACKSON        FAIR      69  66  90 CALM      29.99S
LANSING        FAIR      69  67  93 SW3       29.97F
MASON          FAIR      69  65  85 CALM      29.98R
MONROE         FAIR      68  65  93 W3        29.97S
PONTIAC        FAIR      74  66  76 W5        29.96S
PORT HOPE        N/A     77  67  71 W8        29.90R
PORT HURON     FAIR      72  64  78 W3        29.94S
TRI CITIES     FAIR      70  64  81 W6        29.95R
YPSILANTI      FAIR      71  66  84 SW6       29.98S
$$
MIZ043>046-050>051-056>058-064>065-071>073-077>080-150600-
SOUTHWEST LOWER MICHIGAN

CITY           SKY/WX    TMP DP  RH WIND       PRES   REMARKS
BATTLE CREEK   FAIR      71  67  87 SW6       29.98F
BENTON HARBOR  FAIR      72  67  84 S5        29.95F
BIG RAPIDS     FAIR      67  63  87 E3        29.96R
COLDWATER      FAIR      71  69  95 CALM      29.99F
HOLLAND        FAIR      69  65  86 S3        29.96S
GRAND RAPIDS   FAIR      70  66  87 S3        29.96S
KALAMAZOO      FAIR      71  67  87 S5        29.97F
MARSHALL       FAIR      67  66  94 CALM      29.98S
MOUNT PLEASANT FAIR      70  62  75 W3        29.95R
MUSKEGON         N/A     74  69  85 CALM      29.95S
STURGIS        FAIR      71  66  82 CALM      29.99S
$$
MIZ016>042-150600-
NORTHERN LOWER MICHIGAN

CITY           SKY/WX    TMP DP  RH WIND       PRES   REMARKS
ALPENA         FAIR      69  64  84 W5        29.92R
BEAVER ISLAND  MOCLDY    67  59  77 CALM      29.93S
BELLAIRE       FAIR      71  64  78 CALM      29.92S
CADILLAC       FAIR      69  65  89 SW5       29.96S
CHARLEVOIX     FAIR      72  72 100 N6        29.95R
GAYLORD        FAIR      67  59  75 CALM      29.95R
HOUGHTON LAKE  FAIR      72  62  71 SW6       29.96R
MANISTEE       MOCLDY    66  65  96 E3        29.93R
OSCODA         FAIR      65  60  82 SW5       29.91R
PELLSTON       CLOUDY    69  66  90 SW3       29.91S
TRAVERSE CITY  FAIR      76  66  71 VRB5      29.90S
LUDINGTON      FAIR      74  70  86 SW7       29.93S
$$
MIZ007>008-015-150600-
EASTERN UPPER MICHIGAN

CITY           SKY/WX    TMP DP  RH WIND       PRES   REMARKS
KINROSS        FAIR      64  60  87 N7        29.92S
MACKINAC ISLAN FAIR      66  58  77 NW5       29.91S
NEWBERRY       FAIR      61  60  97 CALM      29.92F
S. S. MARIE    FAIR      65  59  81 NW5       29.90S
$$
MIZ004>006-011>014-085-150600-
CENTRAL UPPER MICHIGAN

CITY           SKY/WX    TMP DP  RH WIND       PRES   REMARKS
MANISTIQUE     FAIR      61  60  94 N3        29.93S
ESCANABA       FAIR      63  58  83 NW3       29.93F
MENOMINEE      FAIR      68  62  81 NE6       29.94R
SAWYER-GWINN   FAIR      59  56  91 NW3       29.96R
$$
MIZ001>003-009>011-084-150600-
WESTERN UPPER MICHIGAN

CITY           SKY/WX    TMP DP  RH WIND       PRES   REMARKS
IRON MOUNTAIN  MOCLDY    62  61  96 CALM      29.94F
HOUGHTON       FAIR      59  57  93 N5        29.95S
COPPER HARBOR    N/A     63  58  83 N6        29.96R
IRONWOOD       FAIR      58  57  97 CALM      29.95F FOG
$$

ABBREVIATIONS USED IN REMARKS
   TC - TEMPERATURE IN CELSIUS
  WCI - WIND CHILL INDEX
   HX - HEAT INDEX
  VSB - VISIBILITY




USA.gov is the U.S. government's official web portal to all federal, state and local government web resources and services.